RYR55PN LICJ-LIMP

Flight info

Callsign RYR55PN
Flight time 1h 13m
Altitude 36000
Route LURON DCT DORAS DCT UNIXO DCT OST DCT AMTEL DCT IPLUB L995 LUPOS
Aircraft B738/M-SDE2E3FGHIRWXY/LB1

Departure

Time 2026-05-06 12:45
Airport Falcone–Borsellino Airport (LICJ)

Arrival

Time 2026-05-06 13:58
Airport Parma Airport (LIMP)
Time Latitude Longitude Altitude Speed Heading
2026-05-06 12:21 38.18528 13.10559 61 ft 0 kts 337°
2026-05-06 12:37 38.18511 13.10569 58 ft 4 kts 332°
2026-05-06 12:38 38.18491 13.10581 55 ft 4 kts 336°
2026-05-06 12:38 38.18471 13.10597 55 ft 4 kts 288°
2026-05-06 12:38 38.18474 13.10624 64 ft 4 kts 247°
2026-05-06 12:38 38.18479 13.10639 57 ft 0 kts 247°
2026-05-06 12:40 38.18472 13.10618 64 ft 10 kts 247°
2026-05-06 12:40 38.18423 13.10520 62 ft 13 kts 211°
2026-05-06 12:41 38.18341 13.10475 64 ft 13 kts 213°
2026-05-06 12:41 38.18290 13.10377 60 ft 15 kts 219°
2026-05-06 12:41 38.18202 13.10334 63 ft 14 kts 244°
2026-05-06 12:41 38.18150 13.10177 63 ft 27 kts 247°
2026-05-06 12:42 38.18078 13.09961 60 ft 26 kts 246°
2026-05-06 12:42 38.18009 13.09757 60 ft 25 kts 248°
2026-05-06 12:42 38.17935 13.09535 63 ft 27 kts 247°
2026-05-06 12:42 38.17862 13.09319 69 ft 26 kts 246°
2026-05-06 12:43 38.17791 13.09116 64 ft 25 kts 245°
2026-05-06 12:43 38.17707 13.08927 65 ft 24 kts 223°
2026-05-06 12:43 38.17579 13.08801 66 ft 23 kts 217°
2026-05-06 12:43 38.17495 13.08794 69 ft 14 kts 104°
2026-05-06 12:44 38.17518 13.08908 66 ft 15 kts 66°
2026-05-06 12:44 38.17648 13.09295 65 ft 82 kts 67°
2026-05-06 12:44 38.17956 13.10212 64 ft 141 kts 67°
2026-05-06 12:44 38.18397 13.11471 413 ft 161 kts 65°
2026-05-06 12:45 38.18824 13.12789 1170 ft 162 kts 70°
2026-05-06 12:45 38.19292 13.14123 1833 ft 167 kts 67°
2026-05-06 12:45 38.20384 13.16688 3015 ft 177 kts 67°
2026-05-06 12:46 38.20918 13.18234 3272 ft 207 kts 62°
2026-05-06 12:46 38.21912 13.19713 3486 ft 233 kts 48°
2026-05-06 12:46 38.23269 13.20992 3743 ft 254 kts 25°
2026-05-06 12:46 38.24984 13.21871 4062 ft 276 kts 22°
2026-05-06 12:47 38.26768 13.22771 4733 ft 283 kts 22°
2026-05-06 12:47 38.28606 13.23713 5506 ft 286 kts 22°
2026-05-06 12:47 38.30457 13.24674 6292 ft 289 kts 22°
2026-05-06 12:47 38.32328 13.25658 7008 ft 293 kts 22°
2026-05-06 12:48 38.34219 13.26659 7745 ft 296 kts 22°
2026-05-06 12:48 38.36129 13.27675 8479 ft 299 kts 22°
2026-05-06 12:48 38.38051 13.28699 9323 ft 299 kts 22°
2026-05-06 12:48 38.39979 13.29719 10040 ft 302 kts 19°
2026-05-06 12:49 38.42081 13.30169 10339 ft 318 kts 352°
2026-05-06 12:49 38.44282 13.29471 10561 ft 336 kts 340°
2026-05-06 12:49 38.46540 13.28505 11002 ft 347 kts 339°
2026-05-06 12:49 38.48841 13.27493 11637 ft 351 kts 338°
2026-05-06 12:50 38.51163 13.26474 12349 ft 354 kts 338°
2026-05-06 12:50 38.53508 13.25453 13039 ft 359 kts 338°
2026-05-06 12:50 38.55888 13.24426 13724 ft 363 kts 338°
2026-05-06 12:50 38.58297 13.23393 14372 ft 367 kts 338°
2026-05-06 12:51 38.60731 13.22353 15091 ft 369 kts 338°
2026-05-06 12:51 38.63172 13.21313 15822 ft 372 kts 338°
2026-05-06 12:51 38.65642 13.20261 16485 ft 376 kts 338°
2026-05-06 12:51 38.68140 13.19195 17127 ft 381 kts 338°
2026-05-06 12:52 38.70667 13.18116 17779 ft 385 kts 338°
2026-05-06 12:52 38.73219 13.17027 18409 ft 389 kts 337°
2026-05-06 12:52 38.75794 13.15926 18985 ft 392 kts 337°
2026-05-06 12:52 38.78388 13.14818 19579 ft 394 kts 337°
2026-05-06 12:53 38.81001 13.13699 20165 ft 397 kts 337°
2026-05-06 12:53 38.83636 13.12572 20705 ft 402 kts 337°
2026-05-06 12:53 38.86322 13.11509 21276 ft 407 kts 344°
2026-05-06 12:53 38.89157 13.11085 21882 ft 413 kts 352°
2026-05-06 12:54 38.92037 13.10895 22472 ft 416 kts 353°
2026-05-06 12:54 38.94941 13.10751 22977 ft 420 kts 353°
2026-05-06 12:54 38.97869 13.10603 23499 ft 422 kts 353°
2026-05-06 12:54 39.00816 13.10433 23954 ft 425 kts 353°
2026-05-06 12:55 39.03775 13.10240 24394 ft 427 kts 352°
2026-05-06 12:55 39.06752 13.10031 24836 ft 430 kts 352°
2026-05-06 12:55 39.09729 13.09813 25405 ft 428 kts 351°
2026-05-06 12:55 39.12707 13.09590 25869 ft 429 kts 351°
2026-05-06 12:56 39.15704 13.09361 26216 ft 434 kts 351°
2026-05-06 12:56 39.18687 13.09132 26588 ft 437 kts 351°
2026-05-06 12:56 39.21774 13.08897 26972 ft 440 kts 351°
2026-05-06 12:56 39.24836 13.08664 27378 ft 442 kts 351°
2026-05-06 12:57 39.27916 13.08431 27739 ft 445 kts 351°
2026-05-06 12:57 39.31008 13.08197 28165 ft 446 kts 351°
2026-05-06 12:57 39.34071 13.07966 28604 ft 447 kts 351°
2026-05-06 12:57 39.37185 13.07729 28958 ft 450 kts 351°
2026-05-06 12:58 39.40318 13.07491 29285 ft 453 kts 351°
2026-05-06 12:58 39.43470 13.07251 29623 ft 455 kts 351°
2026-05-06 12:58 39.46639 13.07010 29978 ft 457 kts 351°
2026-05-06 12:58 39.49821 13.06768 30273 ft 459 kts 351°
2026-05-06 12:59 39.53023 13.06524 30535 ft 462 kts 351°
2026-05-06 12:59 39.56238 13.06278 30775 ft 465 kts 351°
2026-05-06 12:59 39.58375 13.06114 30993 ft 464 kts 350°
2026-05-06 12:59 39.61564 13.05635 31376 ft 457 kts 342°
2026-05-06 13:00 39.64645 13.04729 31798 ft 452 kts 340°
2026-05-06 13:00 39.67698 13.03726 32098 ft 453 kts 339°
2026-05-06 13:00 39.70785 13.02684 32468 ft 452 kts 339°
2026-05-06 13:00 39.73783 13.01679 32859 ft 450 kts 339°
2026-05-06 13:01 39.76819 13.00677 33186 ft 451 kts 339°
2026-05-06 13:01 39.79874 12.99683 33446 ft 453 kts 339°
2026-05-06 13:01 39.82933 12.98700 33793 ft 452 kts 339°
2026-05-06 13:01 39.85983 12.97729 34168 ft 450 kts 339°
2026-05-06 13:02 39.89016 12.96765 34506 ft 448 kts 339°
2026-05-06 13:02 39.92041 12.95804 34818 ft 447 kts 339°
2026-05-06 13:02 39.95056 12.94845 35123 ft 445 kts 338°
2026-05-06 13:02 39.98063 12.93887 35440 ft 444 kts 338°
2026-05-06 13:03 40.01054 12.92932 35755 ft 442 kts 338°
2026-05-06 13:03 40.04037 12.91978 36020 ft 441 kts 338°
2026-05-06 13:03 40.07038 12.91014 35992 ft 446 kts 338°
2026-05-06 13:04 40.13070 12.89076 36003 ft 447 kts 338°
2026-05-06 13:04 40.19166 12.87114 36038 ft 455 kts 338°
2026-05-06 13:05 40.25383 12.85111 36021 ft 464 kts 338°
2026-05-06 13:05 40.31685 12.83081 36010 ft 468 kts 338°
2026-05-06 13:06 40.38021 12.81040 36008 ft 470 kts 338°
2026-05-06 13:06 40.44367 12.78990 36024 ft 468 kts 338°
2026-05-06 13:07 40.50640 12.76962 36005 ft 461 kts 338°
2026-05-06 13:07 40.56886 12.74928 36017 ft 464 kts 338°
2026-05-06 13:08 40.63160 12.72882 36013 ft 466 kts 338°
2026-05-06 13:08 40.69462 12.70827 36012 ft 467 kts 338°
2026-05-06 13:09 40.75773 12.68766 36009 ft 467 kts 338°
2026-05-06 13:09 40.82000 12.66450 36011 ft 463 kts 334°
2026-05-06 13:10 40.88105 12.63795 36015 ft 462 kts 333°
2026-05-06 13:10 40.94165 12.61137 35999 ft 462 kts 334°
2026-05-06 13:11 41.00279 12.58498 35990 ft 462 kts 334°
2026-05-06 13:11 41.06400 12.55877 36005 ft 462 kts 334°
2026-05-06 13:12 41.12524 12.53254 36010 ft 463 kts 335°
2026-05-06 13:12 41.18666 12.50616 36033 ft 465 kts 335°
2026-05-06 13:13 41.24828 12.47964 36004 ft 465 kts 335°
2026-05-06 13:13 41.30991 12.45307 36005 ft 466 kts 335°
2026-05-06 13:14 41.37165 12.42638 36012 ft 467 kts 335°
2026-05-06 13:14 41.43353 12.39959 36024 ft 468 kts 335°
2026-05-06 13:15 41.49551 12.37269 36021 ft 469 kts 335°
2026-05-06 13:15 41.55753 12.34572 36026 ft 469 kts 335°
2026-05-06 13:16 41.61969 12.31864 36026 ft 470 kts 335°
2026-05-06 13:16 41.68191 12.29148 36020 ft 471 kts 335°
2026-05-06 13:17 41.74422 12.26422 35997 ft 471 kts 335°
2026-05-06 13:17 41.80658 12.23689 36002 ft 472 kts 335°
2026-05-06 13:18 41.86910 12.20966 35990 ft 473 kts 335°
2026-05-06 13:18 41.93130 12.18266 35971 ft 473 kts 335°
2026-05-06 13:19 41.99394 12.15538 35980 ft 474 kts 335°
2026-05-06 13:19 42.05667 12.12798 35965 ft 475 kts 335°
2026-05-06 13:20 42.11995 12.10027 35982 ft 475 kts 335°
2026-05-06 13:20 42.18283 12.07268 35974 ft 475 kts 335°
2026-05-06 13:21 42.24529 12.04522 35990 ft 476 kts 335°
2026-05-06 13:21 42.30826 12.01747 36008 ft 477 kts 335°
2026-05-06 13:22 42.37140 11.98958 35993 ft 478 kts 335°
2026-05-06 13:22 42.43457 11.96164 35998 ft 477 kts 335°
2026-05-06 13:23 42.49771 11.93365 35994 ft 477 kts 335°
2026-05-06 13:23 42.56075 11.90564 35990 ft 476 kts 335°
2026-05-06 13:24 42.62372 11.87759 36001 ft 476 kts 335°
2026-05-06 13:24 42.68665 11.84951 35983 ft 476 kts 335°
2026-05-06 13:25 42.74958 11.82136 35969 ft 476 kts 335°
2026-05-06 13:25 42.81246 11.79318 35968 ft 475 kts 335°
2026-05-06 13:26 42.87529 11.76496 35972 ft 476 kts 335°
2026-05-06 13:26 42.90684 11.75075 35774 ft 478 kts 335°
2026-05-06 13:26 42.93800 11.73676 35723 ft 464 kts 334°
2026-05-06 13:26 42.96826 11.72322 35631 ft 451 kts 334°
2026-05-06 13:27 42.99772 11.70999 35559 ft 439 kts 334°
2026-05-06 13:27 43.02642 11.69705 35405 ft 430 kts 334°
2026-05-06 13:27 43.05469 11.68422 35078 ft 427 kts 333°
2026-05-06 13:27 43.08282 11.67141 34664 ft 426 kts 334°
2026-05-06 13:28 43.11092 11.65860 34198 ft 426 kts 333°
2026-05-06 13:28 43.13901 11.64583 33794 ft 424 kts 333°
2026-05-06 13:28 43.16688 11.63318 33403 ft 421 kts 333°
2026-05-06 13:28 43.19457 11.62061 33009 ft 418 kts 333°
2026-05-06 13:29 43.22188 11.60756 32591 ft 412 kts 328°
2026-05-06 13:29 43.24722 11.59038 32173 ft 403 kts 322°
2026-05-06 13:29 43.27166 11.57162 31710 ft 402 kts 321°
2026-05-06 13:29 43.29590 11.55256 31303 ft 401 kts 321°
2026-05-06 13:30 43.31972 11.53380 30951 ft 399 kts 321°
2026-05-06 13:30 43.34371 11.51503 30589 ft 395 kts 321°
2026-05-06 13:30 43.36748 11.49658 30093 ft 390 kts 321°
2026-05-06 13:30 43.39112 11.47829 29415 ft 389 kts 321°
2026-05-06 13:31 43.41464 11.46014 28790 ft 386 kts 321°
2026-05-06 13:31 43.43801 11.44212 28392 ft 384 kts 321°
2026-05-06 13:31 43.46131 11.42419 28000 ft 382 kts 321°
2026-05-06 13:31 43.48445 11.40637 27635 ft 380 kts 321°
2026-05-06 13:32 43.50742 11.38866 27274 ft 377 kts 321°
2026-05-06 13:32 43.53023 11.37104 26931 ft 374 kts 322°
2026-05-06 13:32 43.55288 11.35356 26599 ft 372 kts 322°
2026-05-06 13:32 43.57538 11.33617 26250 ft 370 kts 322°
2026-05-06 13:33 43.59774 11.31887 25913 ft 368 kts 322°
2026-05-06 13:33 43.61998 11.30164 25597 ft 365 kts 322°
2026-05-06 13:33 43.64210 11.28448 25256 ft 364 kts 322°
2026-05-06 13:33 43.66410 11.26741 24920 ft 362 kts 322°
2026-05-06 13:34 43.68601 11.25039 24610 ft 361 kts 322°
2026-05-06 13:34 43.70785 11.23342 24254 ft 360 kts 323°
2026-05-06 13:34 43.72960 11.21649 23913 ft 358 kts 323°
2026-05-06 13:34 43.75127 11.19963 23586 ft 357 kts 323°
2026-05-06 13:35 43.77286 11.18281 23193 ft 356 kts 323°
2026-05-06 13:35 43.79435 11.16605 22828 ft 354 kts 323°
2026-05-06 13:35 43.81573 11.14938 22488 ft 351 kts 323°
2026-05-06 13:35 43.83691 11.13285 22156 ft 348 kts 323°
2026-05-06 13:36 43.85795 11.11641 21841 ft 346 kts 323°
2026-05-06 13:36 43.87879 11.10011 21514 ft 343 kts 323°
2026-05-06 13:36 43.89955 11.08386 21186 ft 341 kts 323°
2026-05-06 13:36 43.92011 11.06774 20893 ft 339 kts 323°
2026-05-06 13:37 43.94062 11.05166 20580 ft 338 kts 323°
2026-05-06 13:37 43.96103 11.03563 20271 ft 336 kts 323°
2026-05-06 13:37 43.98135 11.01965 19953 ft 335 kts 323°
2026-05-06 13:37 44.00160 11.00373 19641 ft 334 kts 323°
2026-05-06 13:38 44.02180 10.98783 19340 ft 333 kts 323°
2026-05-06 13:38 44.04166 10.97220 19036 ft 332 kts 324°
2026-05-06 13:38 44.06173 10.95639 18731 ft 331 kts 324°
2026-05-06 13:38 44.08177 10.94057 18394 ft 330 kts 324°
2026-05-06 13:39 44.10170 10.92486 18105 ft 328 kts 323°
2026-05-06 13:39 44.12151 10.90914 17748 ft 328 kts 323°
2026-05-06 13:39 44.14129 10.89352 17418 ft 326 kts 324°
2026-05-06 13:39 44.16100 10.87798 17086 ft 324 kts 323°
2026-05-06 13:40 44.18053 10.86254 16775 ft 321 kts 323°
2026-05-06 13:40 44.19990 10.84720 16474 ft 319 kts 323°
2026-05-06 13:40 44.21913 10.83196 16160 ft 317 kts 323°
2026-05-06 13:40 44.23826 10.81679 15863 ft 315 kts 323°
2026-05-06 13:41 44.25718 10.80150 15550 ft 313 kts 322°
2026-05-06 13:41 44.27559 10.78546 15243 ft 311 kts 321°
2026-05-06 13:41 44.29373 10.76921 14949 ft 310 kts 321°
2026-05-06 13:41 44.31184 10.75297 14653 ft 309 kts 321°
2026-05-06 13:42 44.32993 10.73682 14342 ft 309 kts 321°
2026-05-06 13:42 44.34802 10.72071 14039 ft 308 kts 321°
2026-05-06 13:42 44.36606 10.70463 13700 ft 307 kts 321°
2026-05-06 13:42 44.38402 10.68867 13380 ft 304 kts 321°
2026-05-06 13:43 44.40181 10.67289 13063 ft 302 kts 321°
2026-05-06 13:43 44.41946 10.65722 12754 ft 299 kts 321°
2026-05-06 13:43 44.43698 10.64164 12483 ft 297 kts 321°
2026-05-06 13:43 44.45439 10.62614 12174 ft 296 kts 321°
2026-05-06 13:44 44.47172 10.61071 11887 ft 294 kts 321°
2026-05-06 13:44 44.48890 10.59540 11598 ft 292 kts 321°
2026-05-06 13:44 44.50600 10.58016 11318 ft 291 kts 321°
2026-05-06 13:44 44.52301 10.56487 10981 ft 291 kts 322°
2026-05-06 13:45 44.53996 10.54958 10708 ft 289 kts 322°
2026-05-06 13:45 44.57368 10.51913 10132 ft 287 kts 322°
2026-05-06 13:45 44.59030 10.50412 10000 ft 280 kts 322°
2026-05-06 13:46 44.60660 10.48939 9753 ft 278 kts 322°
2026-05-06 13:46 44.62286 10.47466 9471 ft 277 kts 322°
2026-05-06 13:46 44.63903 10.46002 9170 ft 276 kts 321°
2026-05-06 13:46 44.64968 10.45037 9000 ft 275 kts 321°
2026-05-06 13:47 44.66564 10.43591 8734 ft 273 kts 321°
2026-05-06 13:47 44.68156 10.42148 8470 ft 271 kts 321°
2026-05-06 13:47 44.69731 10.40718 8231 ft 268 kts 321°
2026-05-06 13:47 44.71296 10.39295 7977 ft 267 kts 321°
2026-05-06 13:48 44.72854 10.37877 7719 ft 267 kts 321°
2026-05-06 13:48 44.74409 10.36461 7464 ft 266 kts 321°
2026-05-06 13:48 44.75964 10.35046 7199 ft 266 kts 321°
2026-05-06 13:48 44.77521 10.33626 6920 ft 267 kts 321°
2026-05-06 13:49 44.79079 10.32205 6645 ft 266 kts 321°
2026-05-06 13:49 44.80627 10.30794 6361 ft 265 kts 322°
2026-05-06 13:49 44.82343 10.29813 6103 ft 275 kts 351°
2026-05-06 13:49 44.84229 10.30150 6020 ft 272 kts 14°
2026-05-06 13:50 44.86001 10.30972 5920 ft 269 kts 16°
2026-05-06 13:50 44.87781 10.31820 5821 ft 271 kts 15°
2026-05-06 13:50 44.89608 10.32675 5604 ft 283 kts 16°
2026-05-06 13:50 44.91506 10.33551 5325 ft 290 kts 16°
2026-05-06 13:51 44.93428 10.34431 4937 ft 292 kts 17°
2026-05-06 13:51 44.95355 10.35378 4567 ft 294 kts 26°
2026-05-06 13:51 44.96871 10.37236 4237 ft 290 kts 61°
2026-05-06 13:51 44.97462 10.39848 4134 ft 273 kts 86°
2026-05-06 13:52 44.97827 10.42415 3561 ft 279 kts 67°
2026-05-06 13:52 44.98960 10.44623 3139 ft 278 kts 41°
2026-05-06 13:52 45.00641 10.45797 3099 ft 265 kts 10°
2026-05-06 13:52 45.02398 10.45702 3059 ft 247 kts 339°
2026-05-06 13:53 45.03786 10.44442 3037 ft 234 kts 306°
2026-05-06 13:53 45.04453 10.42432 3034 ft 225 kts 273°
2026-05-06 13:53 45.04221 10.40298 3040 ft 222 kts 238°
2026-05-06 13:53 45.03123 10.38873 3047 ft 215 kts 205°
2026-05-06 13:54 45.01732 10.38142 3051 ft 211 kts 199°
2026-05-06 13:54 45.00363 10.37514 3023 ft 202 kts 198°
2026-05-06 13:54 44.99064 10.36941 2997 ft 189 kts 198°
2026-05-06 13:54 44.97843 10.36403 2963 ft 179 kts 198°
2026-05-06 13:55 44.96654 10.35879 2856 ft 182 kts 198°
2026-05-06 13:55 44.95433 10.35340 2608 ft 185 kts 197°
2026-05-06 13:55 44.94213 10.34827 2412 ft 183 kts 199°
2026-05-06 13:55 44.93027 10.34210 2161 ft 180 kts 196°
2026-05-06 13:56 44.91832 10.33739 1917 ft 176 kts 195°
2026-05-06 13:56 44.90698 10.33253 1700 ft 165 kts 198°
2026-05-06 13:56 44.89652 10.32792 1501 ft 153 kts 199°
2026-05-06 13:56 44.88655 10.32350 1256 ft 148 kts 198°
2026-05-06 13:57 44.87657 10.31910 1077 ft 156 kts 197°
2026-05-06 13:57 44.86611 10.31448 832 ft 157 kts 195°
2026-05-06 13:57 44.85575 10.30992 612 ft 155 kts 195°
2026-05-06 13:57 44.84549 10.30542 394 ft 151 kts 196°
2026-05-06 13:58 44.83546 10.30094 197 ft 150 kts 196°
2026-05-06 13:58 44.82596 10.29677 163 ft 128 kts 198°
2026-05-06 13:58 44.82005 10.29419 168 ft 43 kts 197°
2026-05-06 13:58 44.81915 10.29408 169 ft 9 kts 147°
2026-05-06 13:59 44.81906 10.29431 169 ft 4 kts 102°
2026-05-06 13:59 44.81924 10.29506 167 ft 12 kts 63°
2026-05-06 13:59 44.81962 10.29609 166 ft 9 kts 62°
2026-05-06 13:59 44.81980 10.29654 166 ft 0 kts 55°
2026-05-06 14:00 44.81982 10.29657 166 ft 2 kts 52°
2026-05-06 14:00 44.82009 10.29682 166 ft 5 kts 37°
2026-05-06 14:00 44.82010 10.29718 166 ft 5 kts 105°
2026-05-06 14:00 44.82004 10.29745 165 ft 3 kts 116°
2026-05-06 14:01 44.81988 10.29755 164 ft 0 kts 158°